Flag for U.S.A. Weather past 2 weeks in San Buenaventura, California, U.S.A.

Now
52 °F

Clear.


Feels Like: 51 °F
Forecast: 52 / 65 °F
Wind: 5 mph from East

Location: Oxnard Airport

Current Time: Apr 25, 2015 at 5:51:29 AM

Latest Report: Apr 25, 2015 at 4:51 AM


Visibility: 10 mi

Pressure: 29.98 "Hg

Humidity: 83%

Dew point: 47 °F

Location of San BuenaventuraLocation

Historic Weather in San Buenaventura — Graph

°F

San Buenaventura temperature yesterday

Maximum temperature yesterday: 65 °F (at 11:51 AM)
Minimum temperature yesterday: 54 °F (at 6:51 AM)
Average temperature yesterday: 59 °F

Past Weeks' High & Low Weather Summary

 TemperatureHumidityPressure
High80 °F (Apr 16, 11:51 AM)93% (Apr 14, 6:51 AM)30.12 "Hg (Apr 14, 6:51 AM)
Low48 °F (Apr 10, 5:51 AM)7% (Apr 16, 11:51 AM)29.84 "Hg (Apr 20, 6:51 PM)
Average60 °F65%29.96 "Hg
* Reported Apr 10 3:51 AM — Apr 25 3:51 AM, San Buenaventura, Weather by CustomWeather, © 2015

Note: Actual official high and low records may vary slightly from our data, if they occured in-between our weather recording intervals... More about our weather records

Advertising

San Buenaventura weather history for previous 24 hours

 ConditionsComfort  
Time TempWeatherWind HumidityBarometerVisibility
3:51 AM
Sat, Apr 25
53 °FClear.3 mph83%29.98 "Hg9 mi
2:51 AM53 °FClear.No wind83%29.98 "Hg9 mi
1:51 AM55 °FClear.No wind80%29.98 "Hg10 mi
12:51 AM55 °FClear.3 mph80%29.99 "Hg9 mi
11:51 PM
Fri, Apr 24
56 °FClear.6 mph81%29.99 "Hg9 mi
10:51 PM57 °FClear.5 mph81%29.99 "Hg9 mi
9:51 PM59 °FClear.No wind75%30.00 "Hg9 mi
8:51 PM60 °FClear.No wind72%29.99 "Hg10 mi
7:51 PM60 °FSunny.No wind72%29.98 "Hg10 mi
6:51 PM60 °FSunny.5 mph72%29.98 "Hg10 mi
5:51 PM62 °FSunny.5 mph67%29.97 "Hg10 mi
4:51 PM63 °FScattered clouds.9 mph60%29.98 "Hg10 mi
3:51 PM63 °FOvercast.12 mph60%29.99 "Hg10 mi
2:51 PM64 °FPartly sunny.10 mph58%29.99 "Hg10 mi
1:51 PM64 °FOvercast.12 mph63%30.00 "Hg10 mi
12:51 PM63 °FOvercast.12 mph65%30.01 "Hg9 mi
11:51 AM65 °FOvercast.12 mph59%30.01 "Hg10 mi
10:51 AM62 °FMostly cloudy.7 mph62%30.01 "Hg10 mi
9:51 AM61 °FOvercast.7 mph70%30.00 "Hg9 mi
8:51 AM60 °FPassing clouds.5 mph72%29.98 "Hg9 mi
7:51 AM58 °FPartly sunny.6 mph75%29.97 "Hg8 mi
6:51 AM54 °FPassing clouds.3 mph83%29.95 "Hg7 mi
5:51 AM55 °FPassing clouds.8 mph80%29.94 "Hg9 mi
Weather by CustomWeather, © 2015

See weather overviewHow to use our weather pages